GW2631 Weather Reports


Display with metric or nautical units.
time (UTC)temp
F
wind
direction
speed
MPH
gust
MPH
rain 1hr
in
rain 24hr
in
rain mn
in
humidity
%
barometer
mb
20260504081904 56 200 4.0 5.0 0.00 0.00 0.00 82 1011.3
20260504081401 56 184 4.0 5.0 0.00 0.00 0.00 82 1011.4
20260504080856 56 201 5.0 5.0 0.00 0.00 0.00 81 1011.2
20260504080354 56 193 4.0 5.0 0.00 0.00 0.00 81 1011.3
20260504070321 58 185 5.0 6.0 0.00 0.00 0.00 77 1011.7
20260504060241 60 176 6.0 6.0 0.00 0.00 0.00 72 1012.4
20260504050709 60 180 5.0 6.0 0.00 0.00 0.00 71 1012.6
20260504050206 60 191 5.0 6.0 0.00 0.00 0.00 72 1012.7
20260504045703 60 211 3.0 5.0 0.00 0.00 0.00 72 1012.7
20260504045157 60 197 4.0 5.0 0.00 0.00 0.00 72 1012.7
20260504044656 60 205 3.0 3.0 0.00 0.00 0.00 73 1012.8
20260504044152 60 190 3.0 3.0 0.00 0.00 0.00 72 1013.0
20260504043649 59 194 2.0 2.0 0.00 0.00 0.00 74 1013.0
20260504043146 59 186 4.0 5.0 0.00 0.00 0.00 75 1013.0
20260504042644 59 189 3.0 3.0 0.00 0.00 0.00 74 1012.9
20260504042140 59 186 3.0 3.0 0.00 0.00 0.00 74 1013.1
20260504041636 58 208 3.0 3.0 0.00 0.00 0.00 76 1013.1
20260504041133 57 209 3.0 3.0 0.00 0.00 0.00 79 1013.1
20260504040630 57 194 3.0 3.0 0.00 0.00 0.00 81 1013.3
20260504040127 57 205 2.0 2.0 0.00 0.00 0.00 80 1013.1
20260504035623 57 217 2.0 2.0 0.00 0.00 0.00 80 1013.1
20260504035120 57 221 2.0 2.0 0.00 0.00 0.00 81 1013.1
20260504034618 57 216 1.0 1.0 0.00 0.00 0.00 81 1013.3
20260504034114 57 217 1.0 1.0 0.00 0.00 0.00 80 1013.5
20260504033612 57 219 1.0 1.0 0.00 0.00 0.00 80 1013.5
20260504033109 58 206 2.0 2.0 0.00 0.00 0.00 79 1013.7
20260504032606 58 211 2.0 2.0 0.00 0.00 0.00 77 1013.5
20260504032103 59 220 2.0 2.0 0.00 0.00 0.00 75 1013.7
20260504031600 60 201 3.0 3.0 0.00 0.00 0.00 74 1013.7
20260504031056 60 212 2.0 2.0 0.00 0.00 0.00 72 1013.7
20260504030553 61 196 2.0 2.0 0.00 0.00 0.00 71 1013.6
20260504030050 61 216 2.0 2.0 0.00 0.00 0.00 70 1013.6
20260504025547 62 188 3.0 3.0 0.00 0.00 0.00 68 1013.8
20260504025044 63 193 3.0 3.0 0.00 0.00 0.00 66 1013.6
20260504024541 64 193 3.0 3.0 0.00 0.00 0.00 65 1013.7
20260504024038 64 209 3.0 3.0 0.00 0.00 0.00 63 1013.4
20260504023534 64 211 3.0 3.0 0.00 0.00 0.00 63 1013.4
20260504023030 65 182 3.0 3.0 0.00 0.00 0.00 62 1013.4
20260504022526 65 188 3.0 3.0 0.00 0.00 0.00 61 1013.3
20260504022023 65 189 3.0 5.0 0.00 0.00 0.00 61 1013.1
20260504021520 65 189 4.0 5.0 0.00 0.00 0.00 61 1013.1
20260504021017 65 209 3.0 3.0 0.00 0.00 0.00 61 1013.1
20260504020514 65 204 4.0 5.0 0.00 0.00 0.00 60 1013.2
20260504020011 66 207 4.0 5.0 0.00 0.00 0.00 61 1013.0
20260504015507 66 204 3.0 3.0 0.00 0.00 0.00 59 1013.2
20260504015003 66 202 4.0 5.0 0.00 0.00 0.00 60 1013.2
20260504014459 66 196 3.0 3.0 0.00 0.00 0.00 61 1013.0
20260504013956 66 189 3.0 3.0 0.00 0.00 0.00 59 1013.0
20260504013455 66 201 3.0 3.0 0.00 0.00 0.00 61 1013.1
20260504012950 67 195 3.0 3.0 0.00 0.00 0.00 59 1013.2
20260504012449 67 184 3.0 3.0 0.00 0.00 0.00 57 1013.0
20260504011946 68 173 4.0 5.0 0.00 0.00 0.00 56 1012.8
20260504011442 68 183 3.0 3.0 0.00 0.00 0.00 55 1012.9
20260504010938 69 187 3.0 3.0 0.00 0.00 0.00 56 1012.9
20260504010434 68 185 3.0 3.0 0.00 0.00 0.00 57 1012.7
20260504005930 69 193 3.0 3.0 0.00 0.00 0.00 55 1012.9
20260504005427 69 162 3.0 3.0 0.00 0.00 0.00 55 1012.8
20260504004925 69 187 3.0 3.0 0.00 0.00 0.00 55 1012.8
20260504004422 69 189 3.0 3.0 0.00 0.00 0.00 54 1012.6
20260504003919 70 193 3.0 3.0 0.00 0.00 0.00 53 1012.7
20260504003415 71 187 4.0 5.0 0.00 0.00 0.00 51 1012.8
20260504002912 71 180 3.0 3.0 0.00 0.00 0.00 50 1012.7
20260504002409 71 192 3.0 3.0 0.00 0.00 0.00 49 1012.7
20260504001907 72 166 3.0 3.0 0.00 0.00 0.00 48 1012.5
20260504001404 72 188 3.0 3.0 0.00 0.00 0.00 47 1012.7
20260504000901 73 191 3.0 3.0 0.00 0.00 0.00 45 1012.7
20260504000358 73 168 4.0 5.0 0.00 0.00 0.00 45 1012.5
20260503235855 73 167 5.0 6.0 0.00 0.00 0.00 45 1012.7
20260503235353 74 166 6.0 8.0 0.00 0.00 0.00 44 1012.7
20260503234850 74 168 5.0 6.0 0.00 0.00 0.00 45 1012.6
20260503234348 74 156 5.0 6.0 0.00 0.00 0.00 44 1012.7
20260503233845 75 158 5.0 5.0 0.00 0.00 0.00 43 1012.7
20260503233341 75 168 5.0 6.0 0.00 0.00 0.00 42 1012.9
20260503232838 75 161 7.0 7.0 0.00 0.00 0.00 43 1013.0
20260503232335 75 196 8.0 9.0 0.00 0.00 0.00 42 1012.9
20260503231833 75 136 7.0 8.0 0.00 0.00 0.00 42 1012.8
20260503231330 76 138 4.0 6.0 0.00 0.00 0.00 41 1012.9
20260503230826 76 134 11.0 15.0 0.00 0.00 0.00 41 1013.0
20260503230323 76 170 8.0 9.0 0.00 0.00 0.00 42 1012.9
20260503225821 76 153 9.0 10.0 0.00 0.00 0.00 40 1013.1
20260503225316 76 152 12.0 16.0 0.00 0.00 0.00 41 1012.9
20260503224813 75 162 9.0 10.0 0.00 0.00 0.00 41 1013.2
20260503224310 76 170 7.0 8.0 0.00 0.00 0.00 42 1013.2
20260503223808 76 161 5.0 7.0 0.00 0.00 0.00 43 1013.0
20260503223305 75 165 8.0 9.0 0.00 0.00 0.00 42 1013.1
20260503222801 75 202 10.0 11.0 0.00 0.00 0.00 42 1013.3
20260503222300 75 149 10.0 13.0 0.00 0.00 0.00 42 1013.5
20260503221757 75 152 13.0 15.0 0.00 0.00 0.00 42 1013.6
20260503221255 75 205 15.0 17.0 0.00 0.00 0.00 41 1013.6
20260503220751 75 169 9.0 10.0 0.00 0.00 0.00 42 1013.6
20260503220248 75 133 11.0 13.0 0.00 0.00 0.00 42 1013.7
20260503215745 75 171 10.0 11.0 0.00 0.00 0.00 42 1013.6
20260503215242 75 142 7.0 10.0 0.00 0.00 0.00 43 1013.7
20260503214740 75 222 13.0 15.0 0.00 0.00 0.00 41 1013.7
20260503214237 75 113 7.0 9.0 0.00 0.00 0.00 42 1013.9
20260503213735 75 171 11.0 15.0 0.00 0.00 0.00 42 1014.0
20260503213232 75 146 11.0 14.0 0.00 0.00 0.00 42 1014.1
20260503212728 75 178 12.0 14.0 0.00 0.00 0.00 43 1014.0
20260503212226 75 138 11.0 11.0 0.00 0.00 0.00 42 1014.3
20260503211724 75 191 14.0 18.0 0.00 0.00 0.00 42 1014.1
20260503211219 74 178 15.0 16.0 0.00 0.00 0.00 42 1014.4
20260503210715 74 154 17.0 18.0 0.00 0.00 0.00 42 1014.4
20260503210213 74 163 13.0 16.0 0.00 0.00 0.00 42 1014.6
20260503205708 74 198 11.0 16.0 0.00 0.00 0.00 41 1014.7
20260503205204 75 145 13.0 20.0 0.00 0.00 0.00 41 1014.7
20260503204701 74 180 12.0 14.0 0.00 0.00 0.00 42 1014.9
20260503204159 74 152 11.0 14.0 0.00 0.00 0.00 43 1014.7
20260503203655 74 215 9.0 13.0 0.00 0.00 0.00 42 1015.2
20260503203154 73 156 10.0 14.0 0.00 0.00 0.00 42 1015.0
20260503202650 73 148 13.0 16.0 0.00 0.00 0.00 41 1015.3
20260503202148 73 156 11.0 11.0 0.00 0.00 0.00 42 1015.1
20260503201646 74 147 15.0 18.0 0.00 0.00 0.00 41 1015.3
20260503201143 73 118 11.0 13.0 0.00 0.00 0.00 43 1015.5
20260503200639 73 152 11.0 11.0 0.00 0.00 0.00 41 1015.7
20260503200136 73 201 7.0 8.0 0.00 0.00 0.00 42 1015.6
20260503195633 73 159 10.0 13.0 0.00 0.00 0.00 41 1016.0
20260503195130 73 176 9.0 10.0 0.00 0.00 0.00 42 1015.9
20260503194627 72 189 13.0 15.0 0.00 0.00 0.00 40 1016.1
20260503194122 72 135 12.0 15.0 0.00 0.00 0.00 42 1016.1
20260503193620 73 160 10.0 13.0 0.00 0.00 0.00 42 1016.1
20260503193114 73 163 12.0 15.0 0.00 0.00 0.00 40 1016.2
20260503192610 73 226 9.0 13.0 0.00 0.00 0.00 41 1016.4
20260503192106 72 183 7.0 8.0 0.00 0.00 0.00 42 1016.4
20260503191603 72 139 9.0 10.0 0.00 0.00 0.00 45 1016.3
20260503191059 71 182 11.0 15.0 0.00 0.00 0.00 43 1016.7
20260503190556 71 121 13.0 18.0 0.00 0.00 0.00 40 1016.7
20260503190053 72 180 12.0 14.0 0.00 0.00 0.00 40 1016.7
20260503185545 70 169 11.0 14.0 0.00 0.00 0.00 41 1016.9
20260503185044 71 119 6.0 7.0 0.00 0.00 0.00 41 1016.8
20260503184541 70 194 10.0 16.0 0.00 0.00 0.00 42 1017.0
20260503184038 70 201 12.0 14.0 0.00 0.00 0.00 41 1017.4
20260503183534 69 123 9.0 13.0 0.00 0.00 0.00 42 1017.4
20260503183031 70 156 11.0 13.0 0.00 0.00 0.00 42 1017.4
20260503182530 70 115 4.0 7.0 0.00 0.00 0.00 42 1017.3
20260503182027 69 155 6.0 8.0 0.00 0.00 0.00 41 1017.7
20260503181524 70 192 6.0 9.0 0.00 0.00 0.00 45 1017.6
20260503181020 69 165 10.0 13.0 0.00 0.00 0.00 44 1018.0
20260503180518 69 147 12.0 14.0 0.00 0.00 0.00 44 1018.0
20260503180015 68 140 12.0 15.0 0.00 0.00 0.00 44 1018.0
20260503175512 67 115 8.0 11.0 0.00 0.00 0.00 42 1018.3
20260503175009 67 103 8.0 10.0 0.00 0.00 0.00 44 1018.2
20260503174507 66 154 7.0 8.0 0.00 0.00 0.00 47 1018.5
20260503174003 67 133 8.0 10.0 0.00 0.00 0.00 44 1018.3
20260503173457 66 154 9.0 11.0 0.00 0.00 0.00 45 1018.5
20260503172954 66 118 5.0 7.0 0.00 0.00 0.00 43 1018.7
20260503172452 66 202 12.0 14.0 0.00 0.00 0.00 45 1018.8
20260503171949 66 198 7.0 9.0 0.00 0.00 0.00 46 1018.9
20260503171445 66 142 12.0 13.0 0.00 0.00 0.00 45 1018.7
20260503170943 66 189 9.0 11.0 0.00 0.00 0.00 45 1018.9
20260503170439 66 146 4.0 6.0 0.00 0.00 0.00 45 1018.9
20260503150831 58 261 7.0 9.0 0.00 0.00 0.00 58 1020.1
20260503150327 57 161 13.0 15.0 0.00 0.00 0.00 57 1019.9
20260503140252 53 186 7.0 9.0 0.00 0.00 0.00 68 1020.6
20260503131221 50 175 5.0 6.0 0.00 0.00 0.00 72 1020.6
20260503130719 49 162 5.0 9.0 0.00 0.00 0.00 71 1020.7
20260503130216 49 153 6.0 7.0 0.00 0.00 0.00 74 1020.8
20260503120142 45 199 4.0 5.0 0.00 0.00 0.00 80 1020.5
20260503110609 45 188 2.0 2.0 0.00 0.00 0.00 78 1019.8
20260503110107 45 169 4.0 5.0 0.00 0.00 0.00 78 1019.7
20260503090456 36 212 0.0 1.0 0.00 0.00 0.00 95 1020.5